Lid_Strength_Index
10 13 15 13 12 10 12 13 13 11 9 10 11 11 9 9 8 9 8 8 7 6 4 3 5 5 6 7 8 7 7 6 6 7 7 7 7 8 8 8 8 8 8 8
12 15 11 9 11 11 11 13 13 10 9 10 11 11 10 9 9 8 8 8 7 6 5 4 4 6 7 7 8 8 7 7 6 6 7 7 8 8 8 7 8 8 8 8
14 12 9 10 12 13 12 14 13 13 11 11 12 14 12 10 9 8 7 7 6 6 6 5 5 4 6 7 8 8 8 7 7 6 7 7 7 7 8 8 8 8 8 8
12 10 11 11 13 13 15 11 11 12 13 16 13 18 14 13 11 9 8 7 7 6 5 5 4 4 5 6 6 7 8 8 7 6 7 7 7 8 8 8 8 8 8 8
14 12 12 13 12 12 13 11 12 12 14 16 15 17 15 12 12 11 10 8 7 6 5 5 4 4 3 4 5 7 7 7 7 6 5 6 7 7 7 8 8 8 7 7
11 10 11 12 11 11 10 12 13 13 15 18 15 17 16 14 12 11 11 9 7 6 5 5 4 3 3 3 4 6 6 7 7 7 7 6 6 7 7 8 8 8 8 8
14 13 12 11 14 12 12 16 20 20 20 19 15 17 15 13 12 11 11 10 8 7 6 5 5 4 4 3 2 4 6 6 7 7 7 7 7 7 7 7 7 8 8 8
19 19 14 12 14 15 15 16 20 21 21 20 16 17 14 11 11 10 10 10 9 8 6 6 5 4 4 3 3 2 3 7 7 7 7 7 7 7 7 7 7 7 7 7
18 18 14 12 12 13 15 17 15 18 19 20 19 16 12 11 11 11 11 10 10 9 9 6 5 5 5 4 3 3 2 3 5 6 6 6 7 7 7 7 8 8 8 7
17 19 15 13 13 13 15 14 18 19 22 22 20 20 18 15 13 11 10 11 10 9 9 8 7 5 5 4 4 2 2 2 3 5 5 6 6 6 6 7 8 9 9 8
15 17 17 16 17 17 16 16 17 17 19 21 22 20 15 14 13 12 11 11 10 10 10 9 8 7 7 6 4 4 3 2 2 4 5 6 6 6 6 6 7 8 9 9
15 17 20 18 16 14 15 17 17 20 21 20 21 21 15 15 13 13 13 12 12 12 11 10 8 7 7 6 6 6 5 3 2 3 5 6 5 6 6 6 7 7 8 8
15 18 22 20 18 17 17 16 16 17 18 20 22 20 14 15 14 13 14 14 13 13 12 12 10 9 7 7 6 6 6 5 3 2 4 6 6 5 6 6 6 7 8 9
11 17 19 22 19 18 18 17 17 17 21 21 19 18 15 14 14 13 14 14 13 13 12 12 12 12 10 8 7 7 6 5 5 3 3 4 5 5 6 6 7 7 8 9
14 18 19 18 17 17 17 17 17 19 18 20 18 18 15 14 14 13 14 13 12 12 12 12 12 12 11 10 8 8 8 7 6 5 5 4 4 4 4 6 7 8 8 9
14 18 17 18 16 17 17 16 16 17 17 18 17 17 14 14 14 13 13 13 12 12 12 11 11 11 11 10 9 8 9 9 8 7 6 6 5 4 4 5 6 7 8 9
16 17 19 20 18 18 19 17 16 16 16 16 18 15 13 13 12 13 12 12 11 12 12 11 11 11 11 10 8 9 9 10 9 8 7 5 5 5 5 6 6 7 8 8
17 17 18 21 20 24 17 15 15 15 14 14 14 14 13 13 12 13 11 12 11 11 10 10 10 10 10 9 8 9 10 10 10 10 9 7 6 6 7 7 7 8 9 9
15 17 19 20 21 18 16 14 14 15 17 14 14 13 13 12 11 12 10 10 10 11 10 9 9 9 9 9 8 9 10 10 10 10 10 9 8 8 8 8 10 10 11 12
15 15 17 19 20 21 17 14 12 13 19 14 14 14 14 14 17 13 11 10 10 9 8 9 9 9 9 8 8 9 10 11 11 11 11 10 10 10 9 10 11 11 11 13
17 18 19 18 18 18 16 14 12 17 18 15 15 15 14 16 14 13 11 11 10 9 9 8 8 9 9 8 8 9 9 9 9 11 11 11 11 10 11 11 11 12 13 13
16 18 18 18 19 21 15 15 17 17 16 16 15 15 15 14 14 13 13 12 10 10 10 9 9 9 8 8 8 8 9 7 8 9 11 11 11 11 12 13 13 12 12 13
18 18 18 18 18 16 15 16 16 15 16 16 15 14 15 16 15 14 14 13 13 12 11 9 10 9 8 7 8 8 7 8 9 9 9 10 11 11 12 13 13 13 13 13
19 18 18 17 18 17 16 16 15 15 15 15 15 15 15 15 15 15 15 14 14 13 12 11 10 10 9 7 7 8 8 9 10 10 10 10 10 11 12 13 13 14 14 14
21 20 20 19 18 17 15 15 16 15 15 15 14 14 15 15 15 14 15 14 13 12 11 11 11 11 10 8 7 7 8 10 10 11 11 11 11 11 13 13 14 14 14 14
20 21 22 22 17 17 17 15 14 15 15 14 14 14 13 13 13 13 12 12 11 11 10 10 9 8 8 7 6 6 8 8 10 12 12 11 12 12 13 14 14 12 12 12